Location: Unspecified
(49.2170°N, 0.0000°E)
Time: 10:36:27
(UTC+00:00)

Vanguard 2 Rocket - Pass Details

Date: 21 January 2021
Orbit: 554 x 3326 km, 32.9° (Epoch: 25 February)

Event Time Altitude Azimuth Distance (km) Brightness Sun altitude
Rises 18:41:17 0° 250° (WSW) 4,739 12.1 -19.6°
Reaches altitude 10° 18:46:08 10° 233° (SW) 3,195 10.5 -20.4°
Maximum altitude 18:50:42 17° 195° (SSW) 2,198 9.1 -21.1°
Drops below altitude 10° 18:54:12 10° 155° (SSE) 2,329 8.8 -21.7°
Enters shadow 18:54:14 10° 154° (SSE) 2,335 8.8 -21.7°
